• In Deutschland
  • Länderverzeichnis
  • Für 7 Tage
  • Wassertemperatur
  • Satellitenkarten
  • Wetterkarte
  • Widgets
  • user-avatar
    Anmelden

    Stündliche Wetter Straubing

    Heute, 18 Dezember, Montag

    Zeit Temperatur Niederschläge Wind Luftdruck Luftfeuchtigkeit
    00:00 -1°C° 0,1 mm 3 m/S 740 mmHg 89%
    01:00 -1°C° 0 mm 3 m/S 740 mmHg 88%
    02:00 -2°C° 0,1 mm 2 m/S 739 mmHg 89%
    03:00 -2°C° 0,1 mm 2 m/S 739 mmHg 90%
    04:00 -2°C° 0,1 mm 2 m/S 739 mmHg 91%
    05:00 -2°C° 0 mm 2 m/S 739 mmHg 91%
    06:00 0°C° 0 mm 1 m/S 739 mmHg 91%
    07:00 0°C° 0 mm 1 m/S 738 mmHg 91%
    08:00 0°C° 0 mm 1 m/S 738 mmHg 89%
    09:00 +1°C° 0 mm 1 m/S 739 mmHg 86%
    10:00 +1°C° 0 mm 1 m/S 739 mmHg 84%
    11:00 +2°C° 0 mm 1 m/S 739 mmHg 80%
    12:00 +2°C° 0 mm 1 m/S 739 mmHg 77%
    13:00 +3°C° 0 mm 1 m/S 739 mmHg 73%
    14:00 +2°C° 0 mm 1 m/S 739 mmHg 76%
    15:00 +1°C° 0 mm 1 m/S 739 mmHg 78%
    16:00 +1°C° 0 mm 1 m/S 739 mmHg 81%
    17:00 0°C° 0 mm 1 m/S 740 mmHg 83%
    18:00 -1°C° 0 mm 1 m/S 740 mmHg 84%
    19:00 -1°C° 0 mm 1 m/S 741 mmHg 86%
    20:00 -1°C° 0 mm 1 m/S 741 mmHg 87%
    21:00 -2°C° 0 mm 1 m/S 742 mmHg 87%
    22:00 -2°C° 0 mm 1 m/S 742 mmHg 88%
    23:00 -2°C° 0 mm 1 m/S 742 mmHg 88%

    Morgen, 19 Dezember, Dienstag

    Zeit Temperatur Niederschläge Wind Luftdruck Luftfeuchtigkeit
    00:00 -3°C° 0 mm 0 m/S 743 mmHg 88%
    01:00 -3°C° 0 mm 0 m/S 743 mmHg 88%
    02:00 -3°C° 0 mm 0 m/S 743 mmHg 88%
    03:00 -3°C° 0 mm 0 m/S 743 mmHg 88%
    04:00 -3°C° 0 mm 0 m/S 743 mmHg 88%
    05:00 -4°C° 0 mm 0 m/S 744 mmHg 88%
    06:00 -4°C° 0 mm 0 m/S 744 mmHg 88%
    07:00 -4°C° 0 mm 0 m/S 744 mmHg 88%
    08:00 -3°C° 0 mm 0 m/S 745 mmHg 86%
    09:00 -2°C° 0 mm 0 m/S 745 mmHg 83%
    10:00 -1°C° 0 mm 0 m/S 745 mmHg 81%
    11:00 +1°C° 0 mm 1 m/S 745 mmHg 78%
    12:00 +1°C° 0 mm 1 m/S 745 mmHg 75%
    13:00 +2°C° 0 mm 1 m/S 745 mmHg 72%
    14:00 +1°C° 0 mm 1 m/S 745 mmHg 76%
    15:00 +1°C° 0 mm 1 m/S 745 mmHg 80%
    16:00 0°C° 0 mm 1 m/S 745 mmHg 83%
    17:00 0°C° 0 mm 1 m/S 745 mmHg 84%
    18:00 0°C° 0 mm 1 m/S 745 mmHg 86%
    19:00 0°C° 0 mm 1 m/S 746 mmHg 87%
    20:00 0°C° 0 mm 1 m/S 746 mmHg 88%
    21:00 -2°C° 0 mm 2 m/S 746 mmHg 89%
    22:00 -2°C° 0 mm 2 m/S 746 mmHg 90%
    23:00 -2°C° 0,2 mm 2 m/S 745 mmHg 91%

    übermorgen, 20 Dezember, Mittwoch

    Zeit Temperatur Niederschläge Wind Luftdruck Luftfeuchtigkeit
    00:00 -1°C° 0,2 mm 2 m/S 745 mmHg 92%
    01:00 -1°C° 0,2 mm 2 m/S 745 mmHg 93%
    02:00 -1°C° 0,4 mm 2 m/S 745 mmHg 93%
    03:00 -1°C° 0,4 mm 2 m/S 744 mmHg 94%
    04:00 -1°C° 0,4 mm 2 m/S 744 mmHg 94%
    05:00 -1°C° 0,2 mm 2 m/S 744 mmHg 94%
    06:00 +1°C° 0,2 mm 2 m/S 744 mmHg 95%
    07:00 +1°C° 0,2 mm 2 m/S 744 mmHg 95%
    08:00 +1°C° 0,1 mm 2 m/S 744 mmHg 95%
    09:00 +1°C° 0,1 mm 2 m/S 744 mmHg 94%
    10:00 +1°C° 0,1 mm 2 m/S 743 mmHg 94%
    11:00 +2°C° 0,1 mm 2 m/S 743 mmHg 94%
    12:00 +2°C° 0,1 mm 2 m/S 743 mmHg 94%
    13:00 +2°C° 0,1 mm 2 m/S 743 mmHg 94%
    14:00 +2°C° 0,1 mm 2 m/S 743 mmHg 95%
    15:00 +2°C° 0,1 mm 2 m/S 743 mmHg 96%
    16:00 +3°C° 0,1 mm 1 m/S 743 mmHg 97%
    17:00 +3°C° 0 mm 1 m/S 743 mmHg 97%
    18:00 +3°C° 0 mm 1 m/S 743 mmHg 97%
    19:00 +2°C° 0 mm 1 m/S 743 mmHg 97%
    20:00 +2°C° 0 mm 1 m/S 744 mmHg 97%
    21:00 +2°C° 0 mm 1 m/S 744 mmHg 97%
    22:00 +2°C° 0 mm 1 m/S 744 mmHg 97%
    23:00 +2°C° 0 mm 1 m/S 744 mmHg 97%

    21 Dezember, Donnerstag

    Zeit Temperatur Niederschläge Wind Luftdruck Luftfeuchtigkeit
    00:00 +2°C° 0 mm 1 m/S 744 mmHg 98%
    01:00 +2°C° 0 mm 1 m/S 744 mmHg 98%
    02:00 +2°C° 0,1 mm 1 m/S 744 mmHg 98%
    03:00 +2°C° 0,1 mm 1 m/S 744 mmHg 98%
    04:00 +2°C° 0,1 mm 1 m/S 744 mmHg 98%
    05:00 +3°C° 0,6 mm 1 m/S 744 mmHg 98%
    06:00 +2°C° 0,6 mm 2 m/S 744 mmHg 98%
    07:00 +2°C° 0,6 mm 2 m/S 743 mmHg 98%
    08:00 +3°C° 0,5 mm 2 m/S 743 mmHg 98%
    09:00 +3°C° 0,5 mm 2 m/S 743 mmHg 98%
    10:00 +3°C° 0,5 mm 2 m/S 743 mmHg 98%
    11:00 +4°C° 0,6 mm 2 m/S 743 mmHg 98%
    12:00 +3°C° 0,6 mm 3 m/S 743 mmHg 98%
    13:00 +3°C° 0,6 mm 3 m/S 742 mmHg 98%
    14:00 +3°C° 1,2 mm 3 m/S 742 mmHg 97%
    15:00 +3°C° 1,2 mm 3 m/S 742 mmHg 97%
    16:00 +4°C° 1,2 mm 3 m/S 742 mmHg 97%
    17:00 +4°C° 1,4 mm 3 m/S 742 mmHg 97%
    18:00 +3°C° 1,4 mm 3 m/S 742 mmHg 97%
    19:00 +4°C° 1,4 mm 2 m/S 742 mmHg 97%
    20:00 +4°C° 0,7 mm 2 m/S 743 mmHg 97%
    21:00 +4°C° 0,7 mm 2 m/S 743 mmHg 98%
    22:00 +4°C° 0,7 mm 2 m/S 743 mmHg 98%
    23:00 +4°C° 0,1 mm 2 m/S 743 mmHg 98%

    22 Dezember, Freitag

    Zeit Temperatur Niederschläge Wind Luftdruck Luftfeuchtigkeit
    00:00 +4°C° 0,1 mm 1 m/S 744 mmHg 98%
    01:00 +4°C° 0,1 mm 1 m/S 744 mmHg 98%
    02:00 +3°C° 0 mm 2 m/S 744 mmHg 98%
    03:00 +3°C° 0 mm 2 m/S 744 mmHg 97%
    04:00 +2°C° 0 mm 2 m/S 744 mmHg 97%
    05:00 +3°C° 0 mm 2 m/S 744 mmHg 97%
    06:00 +3°C° 0 mm 2 m/S 745 mmHg 97%
    07:00 +3°C° 0 mm 2 m/S 745 mmHg 96%
    08:00 +3°C° 0 mm 2 m/S 745 mmHg 96%
    09:00 +3°C° 0 mm 3 m/S 745 mmHg 95%
    10:00 +3°C° 0 mm 3 m/S 745 mmHg 94%
    11:00 +3°C° 0 mm 3 m/S 745 mmHg 93%
    12:00 +3°C° 0 mm 3 m/S 745 mmHg 91%
    13:00 +3°C° 0 mm 3 m/S 745 mmHg 90%
    14:00 +3°C° 0 mm 3 m/S 745 mmHg 90%
    15:00 +3°C° 0 mm 3 m/S 745 mmHg 91%
    16:00 +3°C° 0 mm 2 m/S 745 mmHg 91%
    17:00 +3°C° 0 mm 2 m/S 745 mmHg 91%
    18:00 +3°C° 0 mm 2 m/S 745 mmHg 91%
    19:00 +2°C° 0 mm 2 m/S 745 mmHg 91%
    20:00 +2°C° 0,1 mm 2 m/S 745 mmHg 91%
    21:00 +2°C° 0,1 mm 2 m/S 745 mmHg 92%
    22:00 +2°C° 0,1 mm 2 m/S 745 mmHg 92%
    23:00 +1°C° 0,2 mm 3 m/S 745 mmHg 92%

    23 Dezember, Samstag

    Zeit Temperatur Niederschläge Wind Luftdruck Luftfeuchtigkeit
    00:00 +1°C° 0,2 mm 3 m/S 744 mmHg 92%
    01:00 +1°C° 0,2 mm 3 m/S 744 mmHg 92%
    02:00 0°C° 0,2 mm 4 m/S 744 mmHg 91%
    03:00 0°C° 0,2 mm 4 m/S 743 mmHg 91%
    04:00 0°C° 0,2 mm 5 m/S 743 mmHg 91%
    05:00 0°C° 0,4 mm 5 m/S 743 mmHg 91%
    06:00 0°C° 0,4 mm 5 m/S 743 mmHg 91%
    07:00 0°C° 0,4 mm 5 m/S 743 mmHg 91%
    08:00 0°C° 0,5 mm 5 m/S 743 mmHg 91%
    09:00 +1°C° 0,5 mm 5 m/S 743 mmHg 91%
    10:00 +1°C° 0,5 mm 5 m/S 744 mmHg 92%
    11:00 +1°C° 0,3 mm 5 m/S 744 mmHg 92%
    12:00 +1°C° 0,3 mm 5 m/S 743 mmHg 92%
    13:00 +1°C° 0,3 mm 5 m/S 743 mmHg 92%
    14:00 +1°C° 0,3 mm 4 m/S 743 mmHg 93%
    15:00 +1°C° 0,3 mm 4 m/S 743 mmHg 93%
    16:00 +1°C° 0,3 mm 4 m/S 744 mmHg 94%
    17:00 +2°C° 0,1 mm 3 m/S 744 mmHg 94%
    18:00 +2°C° 0,1 mm 3 m/S 744 mmHg 95%
    19:00 +2°C° 0,1 mm 3 m/S 744 mmHg 96%
    20:00 +3°C° 0 mm 2 m/S 744 mmHg 96%
    21:00 +3°C° 0 mm 2 m/S 744 mmHg 96%
    22:00 +2°C° 0 mm 2 m/S 744 mmHg 97%
    23:00 +2°C° 0 mm 2 m/S 744 mmHg 97%
    Mehr zeigen